AKDT,Max TemperatureF,Mean TemperatureF,Min TemperatureF,Max Dew PointF,MeanDew PointF,Min DewpointF,Max Humidity, Mean Humidity, Min Humidity, Max Sea Level PressureIn, Mean Sea Level PressureIn, Min Sea Level PressureIn, Max VisibilityMiles, Mean VisibilityMiles, Min VisibilityMiles, Max Wind SpeedMPH, Mean Wind SpeedMPH, Max Gust SpeedMPH,PrecipitationIn, CloudCover, Events, WindDirDegrees
2012-10-1,50,40,29,45,36,27,0,0,0,30.33,30.26,30.16,10,10,10,15,5,18,0.01,7,,228
2012-10-2,48,46,44,45,42,37,0,0,0,30.32,30.18,30.07,10,8,2,26,14,31,0.15,8,Rain,121
2012-10-3,48,47,46,48,47,45,0,0,0,30.17,30.04,29.88,10,5,1,17,8,20,0.78,8,Rain,67
2012-10-4,55,52,48,49,45,38,0,0,0,30.19,29.98,29.88,10,9,4,16,9,21,T,7,Rain,160
2012-10-5,48,47,45,47,45,40,0,0,0,30.20,30.16,30.10,10,8,3,9,2,9,0.38,8,Rain,187
2012-10-6,49,48,46,47,46,46,0,0,0,30.27,30.22,30.17,10,6,1,8,1,10,0.24,8,Rain,95
2012-10-7,55,51,47,51,48,46,0,0,0,30.28,30.25,30.22,10,10,3,14,8,16,0.01,7,Rain,74
2012-10-8,48,46,43,46,45,43,0,0,0,30.26,30.21,30.17,10,4,0,12,1,13,0.00,8,Fog,73
2012-10-9,45,42,38,45,41,39,0,0,0,30.17,30.14,30.08,7,2,0,3,1,5,0.00,8,Fog,303
2012-10-10,48,41,34,45,40,34,0,0,0,30.07,29.96,29.85,10,4,0,20,4,25,0.03,7,Fog-Rain,10
2012-10-11,48,47,45,45,44,42,0,0,0,29.84,29.62,29.41,10,8,2,24,14,29,0.05,8,Rain,18
2012-10-12,48,46,44,45,44,43,0,0,0,29.39,29.18,28.99,10,6,2,23,13,32,0.75,8,Rain,13
2012-10-13,47,46,44,47,44,41,0,0,0,29.00,28.97,28.91,10,5,2,20,11,26,1.15,8,Rain,6
2012-10-14,46,42,38,46,41,34,0,0,0,28.90,28.86,28.83,10,8,2,18,8,23,0.15,7,Rain,90
2012-10-15,38,34,30,36,29,18,0,0,0,29.22,29.02,28.89,10,9,4,35,17,46,0.09,7,Rain-Snow,298
2012-10-16,33,30,27,23,17,12,0,0,0,29.57,29.37,29.22,10,9,2,23,11,32,T,6,Snow,259
2012-10-17,37,34,30,22,20,18,0,0,0,29.75,29.71,29.60,10,10,10,24,15,30,0.00,4,,287
2012-10-18,39,33,27,21,20,19,0,0,0,29.83,29.79,29.75,10,10,10,26,12,35,0.00,1,,290
2012-10-19,39,36,32,22,20,19,0,0,0,30.12,29.97,29.84,10,10,10,25,16,35,0.00,1,,290
2012-10-20,42,38,33,23,21,17,0,0,0,30.28,30.21,30.13,10,10,10,25,14,33,0.00,0,,298
2012-10-21,43,34,25,24,22,21,0,0,0,30.34,30.31,30.27,10,10,10,20,8,24,0.00,1,,293
2012-10-22,41,33,24,32,24,18,0,0,0,30.27,30.24,30.21,10,10,10,12,6,16,T,3,,297
2012-10-23,39,33,27,26,24,22,0,0,0,30.23,30.20,30.19,10,10,10,15,8,20,0.00,3,,303
2012-10-24,43,37,30,26,25,22,0,0,0,30.34,30.27,30.24,10,10,10,10,6,18,T,5,,293
2012-10-25,44,40,35,37,35,29,0,0,0,30.41,30.36,30.34,10,10,4,25,11,30,0.09,7,Rain-Snow,357
2012-10-26,44,39,34,37,35,32,0,0,0,30.40,30.30,30.12,10,10,8,20,7,24,0.06,6,Rain,360
2012-10-27,43,38,32,33,31,28,0,0,0,30.12,30.03,29.99,10,10,10,15,6,20,T,6,,324
2012-10-28,45,35,25,32,26,22,0,0,0,30.02,29.99,29.97,10,10,10,8,6,13,0.00,1,,270
2012-10-29,44,34,24,32,26,22,0,0,0,30.03,29.93,29.83,10,10,10,29,9,37,0.00,0,,266
2012-10-30,37,32,26,22,14,8,0,0,0,29.86,29.77,29.67,10,10,10,33,19,43,0.00,1,,285
2012-10-31,32,29,25,22,16,12,0,0,0,29.64,29.56,29.53,10,9,4,21,11,26,0.01,3,Snow,295